Oak Ridge, TN

10:33 AM EST on November 12, 2019 (GMT -0500)
Oak Ridge

Weather History for KOQT - September, 2019

Change the Weather History Date:

Friday, September 13, 2019

  Actual Average (WUND) Record (WUND)
Temperature  
Mean Temperature 84 °F -  
Max Temperature 97 °F - - (-1)
Min Temperature 70 °F - - (-1)
Cooling Degree Days 18    
Growing Degree Days 34 (Base 50)    
Moisture  
Dew Point 67 °F    
Average Humidity 62    
Maximum Humidity 87    
Minimum Humidity 31    
Precipitation  
Precipitation 0.00 in - - ()
Sea Level Pressure  
Sea Level Pressure 30.12 in    
Wind  
Wind Speed 1 mph ()    
Max Wind Speed 6 mph    
Max Gust Speed -    
Visibility 9.9 miles    
Events      
Averages and records for this station are not official NWS values.
T = Trace of Precipitation, MM = Missing Value Source: Averaged Metar Reports

Daily Weather History Graph

Daily Weather History Graph

Search for Another Location

Airport or City:

Astronomy

Sep. 13, 2019 Rise Set
Actual Time 7:17 AM EDT 7:47 PM EDT
Civil Twilight 6:51 AM EDT 8:13 PM EDT
Nautical Twilight 6:21 AM EDT 8:43 PM EDT
Astronomical Twilight 5:50 AM EDT 9:14 PM EDT
Moon 7:58 PM EDT (9/13) 6:37 AM EDT (9/13)
Length of Visible Light 13h 21m
Length of Day
12h 29m
Full, 100% of the Moon is Illuminated
Sep 13
Full
Sep 14
Full
Sep 21
Last Quarter
Sep 28
New
Oct 5
First Quarter

Hourly Weather History & Observations

Time (EDT) Temp. Heat Index Dew Point Humidity Pressure Visibility Wind Dir Wind Speed Gust Speed Precip Events Conditions
12:53 AM 73.9 °F - 66.9 °F 79% 30.10 in 10.0 mi Calm Calm - N/A   Clear
1:53 AM 73.0 °F - 66.9 °F 81% 30.11 in 10.0 mi Calm Calm - N/A   Clear
2:53 AM 72.0 °F - 66.9 °F 84% 30.11 in 10.0 mi Calm Calm - N/A   Clear
3:53 AM 72.0 °F - 66.9 °F 84% 30.10 in 10.0 mi Calm Calm - N/A   Clear
4:53 AM 71.1 °F - 66.9 °F 87% 30.11 in 10.0 mi Calm Calm - N/A   Clear
6:53 AM 70.0 °F - 66.0 °F 87% 30.14 in 9.0 mi Calm Calm - N/A   Clear
7:53 AM 71.1 °F - 66.9 °F 87% 30.14 in 8.0 mi Calm Calm - N/A   Clear
8:53 AM 73.0 °F - 68.0 °F 84% 30.16 in 10.0 mi Calm Calm - N/A   Clear
9:53 AM 78.1 °F - 70.0 °F 76% 30.17 in 10.0 mi Calm Calm - N/A   Clear
10:53 AM 84.0 °F 87.8 °F 69.1 °F 61% 30.17 in 10.0 mi Variable 3.5 mph - N/A   Clear
11:53 AM 89.1 °F 93.7 °F 69.1 °F 52% 30.16 in 10.0 mi NNE 3.5 mph - N/A   Clear
12:53 PM 91.9 °F 95.9 °F 68.0 °F 45% 30.15 in 10.0 mi Calm Calm - N/A   Clear
1:53 PM 93.0 °F 96.4 °F 66.9 °F 42% 30.13 in 10.0 mi SE 4.6 mph - N/A   Clear
2:53 PM 95.0 °F 97.0 °F 64.0 °F 36% 30.11 in 10.0 mi Variable 3.5 mph - N/A   Clear
3:53 PM 96.1 °F 98.8 °F 64.9 °F 36% 30.09 in 10.0 mi West 5.8 mph - N/A   Clear
4:53 PM 97.0 °F 97.8 °F 62.1 °F 31% 30.07 in 10.0 mi Calm Calm - N/A   Clear
5:53 PM 96.1 °F 97.3 °F 63.0 °F 33% 30.07 in 10.0 mi West 5.8 mph - N/A   Clear
6:53 PM 93.9 °F 95.6 °F 64.0 °F 37% 30.07 in 10.0 mi Variable 3.5 mph - N/A   Clear
7:53 PM 89.1 °F 91.3 °F 66.0 °F 46% 30.08 in 10.0 mi Calm Calm - N/A   Clear
8:53 PM 84.0 °F 87.0 °F 68.0 °F 58% 30.12 in 10.0 mi Calm Calm - N/A   Clear
9:53 PM 82.0 °F 84.9 °F 68.0 °F 62% 30.13 in 10.0 mi Calm Calm - N/A   Clear
10:53 PM 80.1 °F 82.9 °F 69.1 °F 69% 30.13 in 10.0 mi Calm Calm - N/A   Clear
11:53 PM 80.1 °F 82.9 °F 69.1 °F 69% 30.14 in 10.0 mi Calm Calm - N/A   Clear